Regional Weather Roundup
Issued by NWS

Home | Current Version | Previous Version | Graphics & Text | Print | Product List | Glossary On
Versions: 1 2 3 4 5 6 7 8 9 10 11 12 13 14 15 16 17 18 19 20 21 22 23 24 25 26 27 28 29 30 31 32 33 34 35 36 37 38 39 40 41 42 43 44 45 46 47 48 49 50
000
ASUS43 KFSD 011910
RWRSD

WEATHER ROUNDUP FOR SOUTH DAKOTA
NATIONAL WEATHER SERVICE SIOUX FALLS SD
200 PM CDT SUN MAY 01 2016

NOTE: "FAIR" INDICATES FEW OR NO CLOUDS BELOW 12,000 FEET WITH NO
SIGNIFICANT WEATHER AND/OR OBSTRUCTIONS TO VISIBILITY.


SDZ001>005-009-010-012>017-012000-
NORTHWEST AND NORTH CENTRAL SOUTH DAKOTA

CITY           SKY/WX    TMP DP  RH WIND       PRES   REMARKS
BUFFALO          N/A     59  28  30 VRB5      30.22F
FAITH            N/A     56  26  31 NE15G21   30.27F
MOBRIDGE       SUNNY     60  33  36 N8        30.23F
$$

SDZ012>016-024>037-041>051-057-063-072>074-012000-
SOUTHWEST AND SOUTH CENTRAL SOUTH DAKOTA

CITY           SKY/WX    TMP DP  RH WIND       PRES   REMARKS
RAPID CTY ARPT MOSUNNY   55  31  39 NE14G21   30.29F
PIERRE         MOSUNNY   56  32  40 NE8       30.25F
CUSTER         MOSUNNY   46  24  42 VRB7      30.27F
ELLSWORTH AFB  MOSUNNY   53  30  41 N14G20    30.28
PHILIP         MOSUNNY   58  34  40 N7G20     30.26F
PINE RIDGE     MOSUNNY   53  29  39 VRB3G20   30.27F
WINNER         FAIR      57  34  41 N22       30.24F
$$

SDZ004>011-016>023-039-040-012000-
NORTHEAST SOUTH DAKOTA

CITY           SKY/WX    TMP DP  RH WIND       PRES   REMARKS
ABERDEEN       SUNNY     59  32  36 N7G18     30.23F
WATERTOWN      SUNNY     58  31  35 N16G25    30.19F
BROOKINGS      SUNNY     54  32  43 NE13G20   30.17F
SISSETON         N/A     61  29  29 NE17G23   30.20F
$$

SDZ017-020-022-023-036>040-048>070-012000-
SOUTHEAST SOUTH DAKOTA

CITY           SKY/WX    TMP DP  RH WIND       PRES   REMARKS
SIOUX FALLS    PTSUNNY   55  41  59 NE16G23   30.16F
HURON          SUNNY     57  33  40 N12       30.21F
CHAMBERLAIN    SUNNY     57  34  42 NE14G23   30.23S
MITCHELL       SUNNY     56  38  50 N12G23    30.21F
YANKTON        MOSUNNY   52  41  66 NW12      30.18F
$$

ABBREVIATIONS USED IN REMARKS
   TC - TEMPERATURE IN CELSIUS
  WCI - WIND CHILL INDEX
   HX - HEAT INDEX
  VSB - VISIBILITY





USA.gov is the U.S. government's official web portal to all federal, state and local government web resources and services.